THOR ABLESTAR DEB, 560

Orbit data source: Space-Track

THOR ABLESTAR DEB, 560 is space debris in LEO originally from a launch on Thu, 29 Jun 1961 UTC launched from the Air Force Eastern Test Range (AFETR). Debris objects in space refer to the collection of defunct objects orbiting the Earth. Examples of debris include non-operational satellites, rocket bodies, and fragments generated from explosions, collisions, or faulty payload assembly.

Loading next visibility...
Identifier
560, 1961-015GS
Orbit
LEO
Country
Flag of USUS
Related business
Manufacturer
Unknown
Mission
Spacecraft
Bus & Motor
Unknown
Mass
Unknown
Launch date (UTC)
1961-06-29 (65 years ago)
Launch vehicle
Unknown
Launch site
Air Force Eastern Test Range (AFETR)
Object type
Payload
Rocket body
Debris
Shape & HBR
Unknown shape, 0.1 m
Radar Cross Section
Medium (>0.1 m² and <1 m²)

Expand to show TLE details & history
Last TLE update: 1 day ago

TLE from 1 day ago
0 THOR ABLESTAR DEB
1 00560U 61015GS  26173.15485570  .00001116  00000-0  11684-2 0  9999
2 00560  67.1579 241.6524 0308763 302.6466  54.5150 13.59504221155087
Epoch: 2026-06-22T03:42Z
TLE epoch observation values (Epoch: 2026-06-22T03:42:59.532Z)
Latitude
-0.00008°
Longitude
-84.44052°
Altitude
911.459 km
Speed
7.46 km/s
True Right ascension
16h 06m 36s
True Declination
0° 00' 00"
Sunlit
Object was in full shadow at epoch
Visualization orbit readout
Latitude
Unknown
Longitude
Unknown
Altitude
Unknown
Speed
Unknown
Apparent Right ascension
Unknown
Apparent Declination
Unknown
Sunlit
N/A
Visualization observer readout
Local Sidereal Time
23:02:48
Azimuth
Unknown
Elevation
Unknown
Doppler factor
Unknown
Orbital elements
Apogee altitude
1,264.787 km
Perigee altitude
806.953 km
Semi-major axis
7,414.007 km
Eccentricity
0.03088
Inclination
67.1579°
RAAN
241.6524°
Arg. of periapsis
302.6466°
True anomaly
57.46067°
Mean anomaly
54.515°
Eccentric anomaly
55.98131°
Mean motion
3.39988 °/min
Orbital period
105.89 mins
BSTAR
0.0011684
Loading maneuver chart data...
Computing Atmospheric mass density...

Documentation

Showing up to 5 results
|